Regional Weather Roundup
Issued by NWS

Home | Current Version | Previous Version | Text Only | Print | Product List | Glossary Off
Versions: 1 2 3 4 5 6 7 8 9 10 11 12 13 14 15 16 17 18 19 20 21 22 23 24 25 26 27 28 29 30 31 32 33 34 35 36 37 38 39 40 41 42 43 44 45 46 47 48 49 50

000
ASUS43 KFSD 231302
RWRSD

WEATHER ROUNDUP FOR SOUTH DAKOTA
NATIONAL WEATHER SERVICE SIOUX FALLS SD
800 AM CDT FRI JUN 23 2017

NOTE: "FAIR" INDICATES FEW OR NO CLOUDS BELOW 12,000 FEET WITH NO
SIGNIFICANT WEATHER AND/OR OBSTRUCTIONS TO VISIBILITY.


SDZ001>005-009-010-012>017-231400-
NORTHWEST AND NORTH CENTRAL SOUTH DAKOTA

CITY           SKY/WX    TMP DP  RH WIND       PRES   REMARKS
BUFFALO          N/A     53  40  61 NW24      30.12R
FAITH            N/A     54  44  69 NW25G35   30.13R
MOBRIDGE       CLOUDY    58  43  57 NW24G33   30.02R
$$

SDZ012>016-024>037-041>051-057-063-072>074-231400-
SOUTHWEST AND SOUTH CENTRAL SOUTH DAKOTA

CITY           SKY/WX    TMP DP  RH WIND       PRES   REMARKS
RAPID CTY ARPT SUNNY     54  39  57 NW23G31   30.19R
PIERRE         CLOUDY    57  47  69 W14       30.08R
CUSTER         SUNNY     46  31  55 VRB6      30.22R
ELLSWORTH AFB  PTSUNNY   54  40  57 N22G28    30.18R
PHILIP         CLOUDY    57  45  64 NW17G23   30.14S
PINE RIDGE     MOSUNNY   56  48  74 CALM      30.20R
SPEARFISH      FAIR      50  39  66 W14G22    30.21S
WINNER         PTSUNNY   60  45  57 NW18G29   30.11S
$$

SDZ004>011-016>023-039-040-231400-
NORTHEAST SOUTH DAKOTA

CITY           SKY/WX    TMP DP  RH WIND       PRES   REMARKS
ABERDEEN       CLOUDY    58  49  72 NW17G25   29.96R
WATERTOWN      CLOUDY    57  51  80 NW18G26   29.92R
BROOKINGS      MOSUNNY   58  51  78 NW21G28   29.93R
SISSETON         N/A     63  52  67 NW22G31   29.86R
$$

SDZ017-020-022-023-036>040-048>070-231400-
SOUTHEAST SOUTH DAKOTA

CITY           SKY/WX    TMP DP  RH WIND       PRES   REMARKS
SIOUX FALLS    CLOUDY    58  50  75 NW15G22   29.96R
HURON          CLOUDY    59  52  77 NW15      30.00R
CHAMBERLAIN    CLOUDY    59  49  69 W18G26    30.06F
MITCHELL       CLOUDY    59  49  69 W15       30.02R
YANKTON        CLOUDY    60  47  61 NW25G32   30.00R
$$

ABBREVIATIONS USED IN REMARKS
   TC - TEMPERATURE IN CELSIUS
  WCI - WIND CHILL INDEX
   HX - HEAT INDEX
  VSB - VISIBILITY




USA.gov is the U.S. government's official web portal to all federal, state and local government web resources and services.